Back to catalog

SL-8 DEB

AliveLEO
NORAD 21157·DEBRIS·🇷🇺 Russia

Launched Feb 12, 1991 from Plesetsk Cosmodrome

Loading…

Next Passes (next 24 hours)

TLE

FreshSource: Space-Track

Epoch: Sep 14, 2026, 14:46 UTC

1 21157U 91009U   26257.61596250 -.00000030  00000-0 -13586-3 0  9992
2 21157  73.9499 212.6392 0173942 116.9448 354.5837 12.24126522587702

Track SL-8 DEB in real time with AllMySat

Download on the App Store